ARIANE 44LP DEB, 33541

Orbit data source: Space-Track

ARIANE 44LP DEB, 33541 is space debris in HEO originally from a launch on Sun, 11 Dec 1988 UTC launched from the French Guiana (FRGUI). Debris objects in space refer to the collection of defunct objects orbiting the Earth. Examples of debris include non-operational satellites, rocket bodies, and fragments generated from explosions, collisions, or faulty payload assembly.

Loading next visibility...
Identifier
33541, 1988-109Q
Orbit
HEO
Country
Flag of FRFR
Related business
Manufacturer
Unknown
Mission
Spacecraft
Bus & Motor
Unknown
Mass
Unknown
Launch date (UTC)
1988-12-11 (37 years ago)
Launch vehicle
Unknown
Launch site
French Guiana (FRGUI)
Object type
Payload
Rocket body
Debris
Shape & HBR
Unknown shape, 0.3 m
Radar Cross Section
Medium (>0.1 m² and <1 m²)

Expand to show TLE details & history
Last TLE update: 1 week ago

TLE from 1 week ago
0 ARIANE 44LP DEB
1 33541U 88109Q   26028.23567348 -.00000068  00000-0 -46824-2 0  9990
2 33541   7.2916 330.4837 7085786 237.5914 324.9090  2.23933429189184
Epoch: 2026-01-28T05:39Z
TLE epoch observation values (Epoch: 2026-01-28T05:39:22.188Z)
Latitude
6.63691°
Longitude
-126.59132°
Altitude
13,495.67 km
Speed
4.895 km/s
True Right ascension
05h 43m 01s
True Declination
6° 37' 22"
Sunlit
Object was in daylight at epoch
Visualization orbit readout
Latitude
Unknown
Longitude
Unknown
Altitude
Unknown
Speed
Unknown
Apparent Right ascension
Unknown
Apparent Declination
Unknown
Sunlit
N/A
Visualization observer readout
Local Sidereal Time
03:08:43
Azimuth
Unknown
Elevation
Unknown
Doppler factor
Unknown
Orbital elements
Apogee altitude
35,795.884 km
Perigee altitude
815.218 km
Semi-major axis
24,683.688 km
Eccentricity
0.70858
Inclination
7.2916°
RAAN
330.4837°
Arg. of periapsis
237.5914°
True anomaly
237.32379°
Mean anomaly
324.909°
Eccentric anomaly
285.85495°
Mean motion
0.55966 °/min
Orbital period
643.24 mins
BSTAR
-0.0046824
Loading maneuver chart data...
Computing Atmospheric mass density...
Loading historical data...
Loading historical data...
Loading historical data...
Loading historical data...
Loading historical data...
Loading historical data...
Loading historical data...

Documentation

Showing up to 5 results
|